Huvudsida
METAR-TAF:

METAR-TAF

Flygplatser :

Forūdgāh-e Lāmerd

Lāmerd, Iran

latitud: 27-22-22N, longitud: 53-11-20E, höjd: 408 m

Aktuellt väderrapport

Denna rapport gjordes för 5 timmar och 21 minuter sedan, klockan 15:00 UTC
Vind 6 kt från väst
Temperatur 21°C
Fuktighet 30%
Tryck 1017 hPa
Sikt 10 km eller mer
Inga moln under 1 500 m eller inga cumulonimbus

METAR: OISR 111500Z 28006KT CAVOK 21/03 Q1016 A3002

Tid: 23:51 (20:21 UTC)


TAF: saknas

Aktuella väderrapporter och prognoser från 4000 flygplatser (METAR- och TAF-rapporter).

De tillgängliga stationerna syns som gula och röda prickar på kartan.

För musen över prickarna för att se namnen på stationerna.

Klicka sedan för att få väderrapporter och prognoser.

För att ändra kartan: Klicka på de gröna knapparna med ett svart kors på för att zooma in; den gröna knappen med ett streck på för att zooma ut; eller på de gröna pilarna för angränsande kartor.


METAR-TAF: